K7SKM Weather Reports


Display with metric or nautical units.
time (UTC)temp
F
wind
direction
speed
MPH
gust
MPH
rain 1hr
in
rain 24hr
in
rain mn
in
humidity
%
barometer
mb
20260906091155 51 139 0.0 0.0 0.00 0.00 0.00 94 1020.9
20260906090651 50 192 0.0 0.0 0.00 0.00 0.00 91 1020.8
20260906090150 51 189 0.0 0.0 0.00 0.00 0.00 91 1020.9
20260906085650 51 186 0.0 0.0 0.00 0.00 0.00 91 1020.9
20260906085149 51 189 0.0 0.0 0.00 0.00 0.00 91 1020.8
20260906084644 51 184 0.0 0.0 0.00 0.00 0.00 91 1021.1
20260906084143 52 128 0.0 3.0 0.00 0.00 0.00 91 1021.1
20260906083638 51 156 0.0 0.0 0.00 0.00 0.00 91 1020.9
20260906083133 52 162 0.0 0.0 0.00 0.00 0.00 91 1021.0
20260906082629 51 184 0.0 0.0 0.00 0.00 0.00 91 1020.8
20260906082124 52 163 0.0 0.0 0.00 0.00 0.00 91 1020.8
20260906081620 52 147 0.0 0.0 0.00 0.00 0.00 91 1020.9
20260906081115 52 156 0.0 0.0 0.00 0.00 0.00 91 1020.7
20260906080611 52 176 0.0 0.0 0.00 0.00 0.00 90 1020.7
20260906080107 52 167 0.0 0.0 0.00 0.00 0.00 90 1020.7
20260906075601 52 191 0.0 0.0 0.00 0.00 0.00 89 1020.6
20260906075056 52 186 0.0 0.0 0.00 0.00 0.00 89 1020.7
20260906074551 52 163 0.0 0.0 0.00 0.00 0.00 89 1020.8
20260906074049 52 211 0.0 0.0 0.00 0.00 0.00 88 1021.0
20260906073544 52 213 0.0 0.0 0.00 0.00 0.00 88 1021.0
20260906073041 52 178 0.0 0.0 0.00 0.00 0.00 88 1020.9
20260906072535 52 187 0.0 0.0 0.00 0.00 0.00 87 1021.0
20260906072031 53 170 0.0 0.0 0.00 0.00 0.00 87 1020.9
20260906071527 53 162 0.0 0.0 0.00 0.00 0.00 87 1021.0
20260906071022 53 170 0.0 0.0 0.00 0.00 0.00 86 1021.2
20260906070519 53 200 0.0 0.0 0.00 0.00 0.00 86 1021.2
20260906070014 53 166 0.0 0.0 0.00 0.00 0.00 86 1021.0
20260906065513 53 204 0.0 0.0 0.00 0.00 0.00 85 1021.1
20260906065009 54 184 0.0 0.0 0.00 0.00 0.00 85 1021.2
20260906064505 54 194 0.0 0.0 0.00 0.00 0.00 85 1021.2
20260906064000 54 180 0.0 0.0 0.00 0.00 0.00 85 1021.2
20260906063456 54 179 0.0 0.0 0.00 0.00 0.00 85 1021.1
20260906062955 54 151 0.0 0.0 0.00 0.00 0.00 85 1021.2
20260906062451 54 142 0.0 0.0 0.00 0.00 0.00 84 1021.2
20260906061945 54 170 0.0 0.0 0.00 0.00 0.00 84 1021.3
20260906061442 54 169 0.0 0.0 0.00 0.00 0.00 84 1021.1
20260906060936 54 206 0.0 0.0 0.00 0.00 0.00 83 1021.2
20260906060433 55 162 0.0 0.0 0.00 0.00 0.00 83 1021.1
20260906055929 55 146 0.0 0.0 0.00 0.00 0.00 83 1021.0
20260906055425 55 187 0.0 0.0 0.00 0.00 0.00 82 1021.4
20260906054920 55 191 0.0 0.0 0.00 0.00 0.00 82 1021.3
20260906054415 55 204 0.0 0.0 0.00 0.00 0.00 82 1021.1
20260906053911 56 185 0.0 0.0 0.00 0.00 0.00 82 1021.3
20260906053407 56 157 0.0 0.0 0.00 0.00 0.00 81 1021.2
20260906052902 56 158 0.0 0.0 0.00 0.00 0.00 81 1021.4
20260906052358 56 181 0.0 0.0 0.00 0.00 0.00 81 1021.4
20260906051855 56 134 0.0 0.0 0.00 0.00 0.00 81 1021.4
20260906051354 56 97 0.0 0.0 0.00 0.00 0.00 80 1021.5
20260906050850 56 141 0.0 0.0 0.00 0.00 0.00 80 1021.4
20260906050345 56 205 0.0 0.0 0.00 0.00 0.00 80 1021.6
20260906045844 57 221 0.0 0.0 0.00 0.00 0.00 80 1021.3
20260906045338 57 183 0.0 0.0 0.00 0.00 0.00 80 1021.4
20260906044835 57 194 0.0 0.0 0.00 0.00 0.00 79 1021.3
20260906044335 57 175 0.0 0.0 0.00 0.00 0.00 79 1021.6
20260906043831 57 164 0.0 0.0 0.00 0.00 0.00 79 1021.6
20260906043326 58 186 0.0 0.0 0.00 0.00 0.00 78 1021.4
20260906042827 58 194 0.0 0.0 0.00 0.00 0.00 78 1021.5
20260906042325 58 177 0.0 0.0 0.00 0.00 0.00 78 1021.3
20260906041821 58 124 0.0 0.0 0.00 0.00 0.00 78 1021.5
20260906041317 59 167 0.0 0.0 0.00 0.00 0.00 78 1021.5
20260906040812 59 152 0.0 0.0 0.00 0.00 0.00 77 1021.5
20260906040307 59 154 0.0 0.0 0.00 0.00 0.00 77 1021.5
20260906035802 59 154 0.0 0.0 0.00 0.00 0.00 76 1021.5
20260906035258 59 154 0.0 0.0 0.00 0.00 0.00 76 1021.4
20260906034757 59 168 0.0 0.0 0.00 0.00 0.00 75 1021.4
20260906034252 60 189 0.0 0.0 0.00 0.00 0.00 75 1021.3
20260906033748 60 183 0.0 0.0 0.00 0.00 0.00 74 1021.5
20260906033247 61 186 0.0 0.0 0.00 0.00 0.00 74 1021.3
20260906032744 61 146 0.0 0.0 0.00 0.00 0.00 73 1021.3
20260906032244 61 181 0.0 0.0 0.00 0.00 0.00 71 1021.4
20260906031739 61 234 0.0 0.0 0.00 0.00 0.00 71 1021.2
20260906031235 62 188 0.0 0.0 0.00 0.00 0.00 71 1021.0
20260906030729 62 211 0.0 0.0 0.00 0.00 0.00 70 1021.2
20260906030224 63 212 0.0 0.0 0.00 0.00 0.00 69 1021.2
20260906025723 63 200 0.0 0.0 0.00 0.00 0.00 68 1021.0
20260906025218 63 215 0.0 0.0 0.00 0.00 0.00 68 1021.0
20260906024717 64 167 0.0 0.0 0.00 0.00 0.00 67 1021.1
20260906024216 64 150 0.0 0.0 0.00 0.00 0.00 67 1021.0
20260906023712 65 153 0.0 0.0 0.00 0.00 0.00 64 1021.0
20260906023207 65 159 0.0 0.0 0.00 0.00 0.00 59 1021.0
20260906022702 65 202 0.0 0.0 0.00 0.00 0.00 57 1020.9
20260906022158 66 204 0.0 0.0 0.00 0.00 0.00 55 1020.9
20260906021654 67 217 0.0 0.0 0.00 0.00 0.00 54 1020.9
20260906021152 67 217 0.0 0.0 0.00 0.00 0.00 53 1020.9
20260906020647 68 217 0.0 0.0 0.00 0.00 0.00 53 1020.7
20260906020142 68 199 0.0 0.0 0.00 0.00 0.00 51 1021.0
20260906015636 69 191 0.0 0.0 0.00 0.00 0.00 50 1021.1
20260906015134 70 197 0.0 0.0 0.00 0.00 0.00 49 1021.1
20260906014629 70 189 0.0 0.0 0.00 0.00 0.00 47 1020.8
20260906014125 71 127 0.0 0.0 0.00 0.00 0.00 46 1021.0
20260906013620 73 211 0.0 0.0 0.00 0.00 0.00 44 1021.0
20260906013116 72 207 0.0 0.0 0.00 0.00 0.00 46 1020.8
20260906012611 74 208 0.0 0.0 0.00 0.00 0.00 42 1020.8
20260906012111 74 199 0.0 0.0 0.00 0.00 0.00 43 1020.9
20260906011607 74 212 0.0 0.0 0.00 0.00 0.00 44 1021.0
20260906011101 73 201 0.0 0.0 0.00 0.00 0.00 45 1020.6
20260906010556 73 111 0.0 3.0 0.00 0.00 0.00 45 1020.8
20260906010053 74 203 0.0 0.0 0.00 0.00 0.00 43 1020.9
20260906005552 73 165 0.0 0.0 0.00 0.00 0.00 44 1020.9
20260906005051 74 278 1.0 3.0 0.00 0.00 0.00 44 1020.8
20260906004550 74 277 2.0 5.0 0.00 0.00 0.00 45 1020.6
20260906004045 73 259 0.0 3.0 0.00 0.00 0.00 46 1020.6
20260906003540 73 244 0.0 0.0 0.00 0.00 0.00 45 1020.8
20260906003037 72 267 2.0 5.0 0.00 0.00 0.00 46 1020.6
20260906002531 72 174 0.0 0.0 0.00 0.00 0.00 48 1020.5
20260906002026 71 149 2.0 3.0 0.00 0.00 0.00 48 1020.6
20260906001521 71 71 0.0 3.0 0.00 0.00 0.00 49 1020.9
20260906001015 71 99 0.0 0.0 0.00 0.00 0.00 49 1020.6
20260906000512 71 90 0.0 3.0 0.00 0.00 0.00 50 1020.8
20260906000006 72 232 0.0 0.0 0.00 0.00 0.00 49 1020.7
20260905235500 71 192 0.0 0.0 0.00 0.00 0.00 49 1020.7
20260905234955 71 157 0.0 0.0 0.00 0.00 0.00 50 1020.8
20260905234450 72 224 0.0 0.0 0.00 0.00 0.00 48 1020.7
20260905233944 71 170 0.0 3.0 0.00 0.00 0.00 51 1020.7
20260905233440 70 160 1.0 5.0 0.00 0.00 0.00 52 1020.8
20260905232939 70 139 3.0 5.0 0.00 0.00 0.00 52 1020.7
20260905232435 70 146 2.0 5.0 0.00 0.00 0.00 53 1020.9
20260905231931 71 185 0.0 0.0 0.00 0.00 0.00 51 1020.7
20260905231426 70 187 0.0 0.0 0.00 0.00 0.00 50 1020.6
20260905230923 70 123 1.0 5.0 0.00 0.00 0.00 48 1020.9
20260905230421 71 157 0.0 0.0 0.00 0.00 0.00 48 1020.9
20260905225919 70 236 0.0 0.0 0.00 0.00 0.00 49 1021.0
20260905225415 70 174 0.0 0.0 0.00 0.00 0.00 48 1021.0
20260905224909 69 209 0.0 0.0 0.00 0.00 0.00 49 1021.2
20260905224406 69 296 3.0 5.0 0.00 0.00 0.00 48 1021.2
20260905223900 70 293 2.0 7.0 0.00 0.00 0.00 45 1021.1
20260905223358 71 188 0.0 0.0 0.00 0.00 0.00 45 1021.2
20260905222858 69 75 0.0 3.0 0.00 0.00 0.00 47 1021.3
20260905222356 68 266 3.0 5.0 0.00 0.00 0.00 51 1021.4
20260905221853 69 207 0.0 5.0 0.00 0.00 0.00 51 1021.8
20260905221350 69 251 0.0 0.0 0.00 0.00 0.00 54 1021.6
20260905220845 69 234 0.0 0.0 0.00 0.00 0.00 53 1021.7
20260905220341 67 91 1.0 5.0 0.00 0.00 0.00 53 1021.7
20260905215840 68 249 0.0 0.0 0.00 0.00 0.00 54 1021.9
20260905215336 66 192 0.0 3.0 0.00 0.00 0.00 55 1021.9
20260905214833 66 195 0.0 0.0 0.00 0.00 0.00 57 1021.9
20260905214333 67 80 1.0 3.0 0.00 0.00 0.00 57 1022.0
20260905213828 66 159 1.0 3.0 0.00 0.00 0.00 63 1022.0
20260905213324 65 174 0.0 0.0 0.00 0.00 0.00 68 1022.1
20260905212819 64 161 0.0 0.0 0.00 0.00 0.00 70 1022.2
20260905212318 64 127 0.0 0.0 0.00 0.00 0.00 70 1022.1
20260905211813 63 124 3.0 5.0 0.00 0.00 0.00 71 1022.1
20260905211308 64 214 0.0 0.0 0.00 0.00 0.00 72 1022.4
20260905210805 63 225 0.0 0.0 0.00 0.00 0.00 74 1022.3
20260905210304 62 150 2.0 5.0 0.00 0.00 0.00 75 1022.1
20260905205803 62 223 0.0 5.0 0.00 0.00 0.00 75 1022.4
20260905205258 61 151 0.0 0.0 0.00 0.00 0.00 76 1022.6
20260905204757 60 145 0.0 5.0 0.00 0.00 0.00 77 1022.4
20260905204254 60 149 0.0 3.0 0.00 0.00 0.00 78 1022.4
20260905203752 59 164 0.0 0.0 0.00 0.00 0.00 79 1022.5
20260905203248 59 130 1.0 3.0 0.00 0.00 0.00 80 1022.6
20260905202743 59 151 0.0 3.0 0.00 0.00 0.00 79 1022.6
20260905202238 58 150 0.0 5.0 0.00 0.00 0.00 78 1022.5
20260905201734 59 144 0.0 0.0 0.00 0.00 0.00 81 1022.6
20260905201229 58 163 0.0 5.0 0.00 0.00 0.00 81 1022.6
20260905200724 58 116 0.0 0.0 0.00 0.00 0.00 80 1022.6
20260905200220 58 164 0.0 5.0 0.00 0.00 0.00 81 1022.6
20260905195718 58 146 0.0 3.0 0.00 0.00 0.00 81 1022.6
20260905194708 59 112 0.0 10.0 0.00 0.00 0.00 81 1022.7
20260905194208 59 137 0.0 0.0 0.00 0.00 0.00 82 1022.7
20260905193702 59 124 0.0 0.0 0.00 0.00 0.00 82 1022.6
20260905193157 59 137 0.0 3.0 0.00 0.00 0.00 82 1022.8
20260905192653 59 144 0.0 3.0 0.00 0.00 0.00 81 1022.7
20260905192149 59 132 0.0 0.0 0.00 0.00 0.00 80 1022.8
20260905191648 59 145 0.0 0.0 0.00 0.00 0.00 78 1022.8
20260905191146 60 151 0.0 0.0 0.00 0.00 0.00 76 1022.7
20260905190645 60 188 0.0 0.0 0.00 0.00 0.00 77 1022.9
20260905190144 60 140 0.0 0.0 0.00 0.00 0.00 77 1022.9
20260905185643 60 163 0.0 0.0 0.00 0.00 0.00 74 1022.9
20260905185138 60 129 0.0 0.0 0.00 0.00 0.00 75 1022.8
20260905184632 60 160 0.0 0.0 0.00 0.00 0.00 74 1022.9
20260905184131 61 147 0.0 0.0 0.00 0.00 0.00 73 1023.0
20260905183630 61 204 0.0 0.0 0.00 0.00 0.00 74 1023.0
20260905183126 61 175 0.0 0.0 0.00 0.00 0.00 74 1023.1
20260905182620 61 193 0.0 0.0 0.00 0.00 0.00 77 1023.2
20260905182119 60 223 0.0 0.0 0.00 0.00 0.00 77 1023.0
20260905181614 60 233 0.0 0.0 0.00 0.00 0.00 78 1023.1
20260905181113 59 140 0.0 0.0 0.00 0.00 0.00 79 1023.0
20260905180609 60 124 0.0 0.0 0.00 0.00 0.00 78 1023.1
20260905180104 59 176 0.0 0.0 0.00 0.00 0.00 79 1023.3
20260905175603 59 203 0.0 0.0 0.00 0.00 0.00 80 1023.1
20260905175058 58 184 0.0 0.0 0.00 0.00 0.00 81 1023.2
20260905174554 58 139 0.0 0.0 0.00 0.00 0.00 81 1023.1
20260905174049 57 129 0.0 0.0 0.00 0.00 0.00 81 1023.1
20260905173546 57 154 0.0 0.0 0.00 0.00 0.00 81 1023.0
20260905173041 58 124 0.0 0.0 0.00 0.00 0.00 81 1023.1
20260905172539 57 153 0.0 0.0 0.00 0.00 0.00 81 1023.0
20260905172035 57 157 0.0 0.0 0.00 0.00 0.00 81 1023.0
20260905171531 57 140 0.0 0.0 0.00 0.00 0.00 81 1022.9
20260905171027 57 145 0.0 0.0 0.00 0.00 0.00 81 1022.9
20260905170523 58 163 0.0 0.0 0.00 0.00 0.00 81 1022.8
20260905170018 57 142 0.0 0.0 0.00 0.00 0.00 82 1022.7
20260905165513 57 148 0.0 0.0 0.00 0.00 0.00 82 1022.9
20260905165008 57 144 0.0 0.0 0.00 0.00 0.00 85 1022.8
20260905164502 57 141 0.0 0.0 0.00 0.00 0.00 86 1022.7
20260905163956 56 130 0.0 0.0 0.00 0.00 0.00 88 1022.9
20260905163453 55 134 0.0 0.0 0.00 0.00 0.00 89 1022.8
20260905162949 55 135 0.0 0.0 0.00 0.00 0.00 89 1022.7
20260905162444 55 150 0.0 0.0 0.00 0.00 0.00 89 1022.8
20260905161939 56 163 0.0 0.0 0.00 0.00 0.00 90 1022.7
20260905161438 55 148 0.0 0.0 0.00 0.00 0.00 91 1022.7
20260905160936 55 147 0.0 0.0 0.00 0.00 0.00 91 1022.8
20260905160430 55 135 0.0 0.0 0.00 0.00 0.00 91 1022.8
20260905155930 54 157 0.0 0.0 0.00 0.00 0.00 91 1022.6
20260905155425 54 174 0.0 0.0 0.00 0.00 0.00 92 1022.6
20260905154923 54 136 0.0 0.0 0.00 0.00 0.00 92 1023.0
20260905154419 53 138 0.0 0.0 0.00 0.00 0.00 93 1022.7
20260905153914 53 148 0.0 0.0 0.00 0.00 0.00 93 1022.7
20260905153411 53 158 0.0 0.0 0.00 0.00 0.00 94 1022.6
20260905152910 52 168 0.0 0.0 0.00 0.00 0.00 95 1022.6
20260905152409 52 148 0.0 0.0 0.00 0.00 0.00 95 1022.7
20260905151905 51 133 0.0 0.0 0.00 0.00 0.00 96 1022.7
20260905151401 52 128 0.0 0.0 0.00 0.00 0.00 97 1022.6
20260905150900 51 145 0.0 0.0 0.00 0.00 0.00 97 1022.7
20260905150355 51 100 0.0 0.0 0.00 0.00 0.00 97 1022.7
20260905145852 51 162 0.0 0.0 0.00 0.00 0.00 97 1022.7
20260905145346 51 160 0.0 0.0 0.00 0.00 0.00 98 1022.6
20260905144846 51 151 0.0 0.0 0.00 0.00 0.00 98 1022.5
20260905144342 50 175 0.0 0.0 0.00 0.00 0.00 98 1022.4
20260905143840 50 183 0.0 0.0 0.00 0.00 0.00 98 1022.6
20260905143334 50 174 0.0 0.0 0.00 0.00 0.00 98 1022.3
20260905142834 50 162 0.0 0.0 0.00 0.00 0.00 98 1022.4
20260905142332 50 193 0.0 0.0 0.00 0.00 0.00 98 1022.3
20260905141829 50 143 0.0 0.0 0.00 0.00 0.00 98 1022.2
20260905141324 50 128 0.0 3.0 0.00 0.00 0.00 98 1022.2
20260905140820 49 171 0.0 0.0 0.00 0.00 0.00 98 1022.2
20260905140320 49 184 0.0 0.0 0.00 0.00 0.00 98 1022.3
20260905135818 49 171 0.0 0.0 0.00 0.00 0.00 98 1022.2
20260905135314 49 155 0.0 0.0 0.00 0.00 0.00 98 1022.3
20260905134809 49 155 0.0 0.0 0.00 0.00 0.00 98 1022.1
20260905134303 49 153 0.0 0.0 0.00 0.00 0.00 98 1021.9
20260905133757 49 180 0.0 0.0 0.00 0.00 0.00 98 1022.1
20260905133253 49 180 0.0 0.0 0.00 0.00 0.00 98 1021.9
20260905132752 49 179 0.0 0.0 0.00 0.00 0.00 98 1022.2
20260905132247 49 180 0.0 0.0 0.00 0.00 0.00 98 1021.9
20260905131742 49 184 0.0 0.0 0.00 0.00 0.00 98 1021.9
20260905131237 49 177 0.0 0.0 0.00 0.00 0.00 98 1022.1
20260905130732 49 188 0.0 0.0 0.00 0.00 0.00 98 1021.9
20260905130231 49 181 0.0 0.0 0.00 0.00 0.00 98 1022.0
20260905125727 49 182 0.0 0.0 0.00 0.00 0.00 98 1022.1
20260905125221 49 154 0.0 0.0 0.00 0.00 0.00 98 1021.9
20260905124718 49 158 0.0 0.0 0.00 0.00 0.00 98 1021.9
20260905124214 49 145 0.0 3.0 0.00 0.00 0.00 98 1021.8
20260905123708 49 137 0.0 0.0 0.00 0.00 0.00 98 1021.9
20260905123206 49 177 0.0 0.0 0.00 0.00 0.00 98 1021.7
20260905122705 49 151 0.0 0.0 0.00 0.00 0.00 98 1021.7
20260905122159 49 157 0.0 0.0 0.00 0.00 0.00 98 1022.0
20260905121654 49 148 0.0 0.0 0.00 0.00 0.00 98 1021.9
20260905121150 49 177 0.0 0.0 0.00 0.00 0.00 98 1021.8
20260905120649 49 180 0.0 0.0 0.00 0.00 0.00 98 1022.0
20260905120144 49 185 0.0 0.0 0.00 0.00 0.00 98 1021.9
20260905115644 49 144 0.0 0.0 0.00 0.00 0.00 98 1021.9
20260905115139 49 154 0.0 0.0 0.00 0.00 0.00 98 1021.9
20260905114638 49 169 0.0 0.0 0.00 0.00 0.00 98 1021.9
20260905114137 49 181 0.0 0.0 0.00 0.00 0.00 98 1021.9
20260905113632 49 201 0.0 0.0 0.00 0.00 0.00 98 1021.9
20260905113127 49 155 0.0 0.0 0.00 0.00 0.00 98 1022.0
20260905112621 49 153 0.0 0.0 0.00 0.00 0.00 98 1021.7
20260905112118 49 162 0.0 0.0 0.00 0.00 0.00 98 1021.7
20260905111612 48 187 0.0 0.0 0.00 0.00 0.00 98 1021.8
20260905111111 48 187 0.0 0.0 0.00 0.00 0.00 97 1021.6
20260905110611 49 183 0.0 0.0 0.00 0.00 0.00 98 1021.7
20260905110106 49 172 0.0 0.0 0.00 0.00 0.00 98 1021.6
20260905105600 49 183 0.0 0.0 0.00 0.00 0.00 98 1021.4
20260905105059 49 175 0.0 0.0 0.00 0.00 0.00 98 1021.5
20260905104555 49 185 0.0 0.0 0.00 0.00 0.00 98 1021.5
20260905104055 49 190 0.0 0.0 0.00 0.00 0.00 97 1021.5
20260905103550 49 185 0.0 0.0 0.00 0.00 0.00 97 1021.5
20260905103047 49 183 0.0 0.0 0.00 0.00 0.00 97 1021.3
20260905102542 50 137 0.0 0.0 0.00 0.00 0.00 97 1021.4
20260905102039 50 151 0.0 0.0 0.00 0.00 0.00 97 1021.4
20260905101537 49 179 0.0 0.0 0.00 0.00 0.00 97 1021.4
20260905101035 50 166 0.0 0.0 0.00 0.00 0.00 97 1021.2
20260905100532 50 160 0.0 0.0 0.00 0.00 0.00 97 1021.5
20260905100031 50 149 0.0 0.0 0.00 0.00 0.00 97 1021.3
20260905095520 50 140 0.0 0.0 0.00 0.00 0.00 97 1021.3
20260905095015 50 123 0.0 0.0 0.00 0.00 0.00 97 1021.3
20260905094510 50 162 0.0 0.0 0.00 0.00 0.00 97 1021.4
20260905094010 50 159 0.0 0.0 0.00 0.00 0.00 97 1021.4
20260905093504 50 157 0.0 3.0 0.00 0.00 0.00 97 1021.3
20260905093001 50 142 0.0 0.0 0.00 0.00 0.00 97 1021.4
20260905092456 50 149 0.0 3.0 0.00 0.00 0.00 97 1021.4
20260905091951 50 163 0.0 0.0 0.00 0.00 0.00 97 1021.3
20260905091451 50 184 0.0 0.0 0.00 0.00 0.00 97 1021.3